Location: Ellerstadt
(49.4644°N, 8.2615°E)
Time: 11:40:21
(UTC+00:00)

NOSS 3-3 (C) - Pass Details

Date: 03 March 2021
Orbit: 813 x 1399 km, 63.4° (Epoch: 13 April)

Event Time Altitude Azimuth Distance (km) Brightness Sun altitude
Rises 20:07:38 0° 317° (NW) 3,923 8.2 -28.5°
Reaches altitude 10° 20:10:10 10° 317° (NW) 3,042 7.4 -28.8°
Maximum altitude 20:17:36 89° 225° (SW) 1,267 4.4 -29.9°
Enters shadow 20:18:47 69° 141° (SE) 1,357 4.4 -30.1°
